Location: Joplin, MO
(37.0842°N, 94.5133°W)
Time: 21:11:01
(UTC+02:00)

Courier 1B Rocket - Pass Details

Date: 08 April 2023
Orbit: 920 x 1202 km, 28.2° (Epoch: 05 June)

Event Time Altitude Azimuth Distance (km) Brightness Sun altitude
Rises 20:16:32 0° 203° (SSW) 3,960 8.6 60.2°
Reaches altitude 10° 20:20:53 10° 180° (S) 3,053 8.3 60.2°
Maximum altitude 20:24:34 14° 150° (SSE) 2,779 8.0 60.2°
Drops below altitude 10° 20:28:18 10° 121° (ESE) 3,113 8.0 60.2°
Sets 20:32:48 0° 99° (E) 4,093 8.3 60.1°
